Simultaneous Nadir Overpasses (SNOs) Predictions

Prediction of SNOs between METOP-B and NOAA-19 Satellite Orbit:

Table of predicted SNOs for the next 14.0 days since TLE Epoch: 3/2/2018
Index Date (METOP-B) Time (METOP-B) Lat,Lon (METOP-B) SZA (METOP-B ) Date (NOAA-19) Time (NOAA-19) Lat,Lon (NOAA-19) SZA (NOAA-19 ) Distance(km) Time Diff (sec)
1 03/11/2018 18:40:27 -78.32, 89.65 98.15 03/11/2018 18:39:18 -78.29, 87.22 98.23 54.84 69
2 03/11/2018 19:31:13 78.10,-104.21 81.59 03/11/2018 19:30:15 78.07,-104.18 81.56 3.10 58
3 03/11/2018 20:21:55 -78.06, 62.93 98.46 03/11/2018 20:21:14 -78.10, 62.90 98.43 4.34 41
4 03/11/2018 21:12:35 78.08,-129.64 81.55 03/11/2018 21:12:16 78.06,-129.62 81.53 2.26 19
5 03/11/2018 22:03:16 -78.08, 37.71 98.47 03/11/2018 22:03:14 -78.05, 37.68 98.50 3.61 2
6 03/11/2018 22:53:57 78.06,-155.07 81.50 03/11/2018 22:54:17 78.05,-155.07 81.49 1.43 20
7 03/11/2018 23:44:37 -78.07, 12.28 98.51 03/11/2018 23:45:14 -78.04, 12.23 98.54 2.89 37
8 03/12/2018 00:35:18 78.04, 179.50 81.45 03/12/2018 00:36:17 78.04, 179.49 81.45 0.62 59
9 03/12/2018 01:26:01 -77.97, -13.57 98.65 03/12/2018 01:27:15 -78.03, -13.21 98.57 10.91 74




NCC Satellite Simultaneous Nadir Overpasses (SNOs) Prediction Service
